When you browse on this site, cookies collect data to enhance your experience and personalize the content and advertising you see.
Visit our Privacy Policy to learn more. By continuing to use the site, you agree to this use of cookies and data.

Hourly Weather Seneckoe

Today, 9 July, Thursday

Time Temperature Precipitation Wind Pressure Humidity
00:00 +12°C° 0 mm 1 mps 748 mmHg 89%
01:00 +12°C° 0 mm 1 mps 749 mmHg 89%
02:00 +12°C° 0 mm 1 mps 748 mmHg 92%
03:00 +12°C° 0 mm 1 mps 748 mmHg 91%
04:00 +12°C° 0 mm 1 mps 749 mmHg 91%
05:00 +12°C° 0 mm 1 mps 749 mmHg 91%
06:00 +13°C° 0.2 mm 1 mps 749 mmHg 91%
07:00 +13°C° 0.2 mm 1 mps 749 mmHg 91%
08:00 +14°C° 0 mm 2 mps 749 mmHg 90%
09:00 +15°C° 0.4 mm 2 mps 749 mmHg 83%
10:00 +16°C° 0.4 mm 3 mps 750 mmHg 76%
11:00 +17°C° 0.4 mm 3 mps 750 mmHg 70%
12:00 +18°C° 0.1 mm 3 mps 750 mmHg 62%
13:00 +19°C° 0.1 mm 4 mps 750 mmHg 54%
14:00 +20°C° 0.1 mm 4 mps 750 mmHg 46%
15:00 +20°C° 0 mm 3 mps 750 mmHg 47%
16:00 +20°C° 0 mm 3 mps 751 mmHg 47%
17:00 +20°C° 0 mm 3 mps 751 mmHg 47%
18:00 +18°C° 0 mm 2 mps 751 mmHg 57%
19:00 +16°C° 0 mm 2 mps 751 mmHg 68%
20:00 +15°C° 0 mm 2 mps 751 mmHg 78%
21:00 +14°C° 0 mm 2 mps 751 mmHg 82%
22:00 +12°C° 0 mm 2 mps 752 mmHg 87%
23:00 +10°C° 0 mm 2 mps 752 mmHg 91%

Tomorrow, 10 July, Friday

Time Temperature Precipitation Wind Pressure Humidity
00:00 +10°C° 0 mm 2 mps 752 mmHg 93%
01:00 +9°C° 0 mm 2 mps 752 mmHg 94%
02:00 +9°C° 0 mm 2 mps 753 mmHg 96%
03:00 +10°C° 0 mm 2 mps 753 mmHg 94%
04:00 +10°C° 0 mm 2 mps 753 mmHg 92%
05:00 +10°C° 0 mm 2 mps 753 mmHg 90%
06:00 +13°C° 0 mm 2 mps 753 mmHg 84%
07:00 +14°C° 0 mm 3 mps 753 mmHg 77%
08:00 +17°C° 0 mm 3 mps 752 mmHg 70%
09:00 +17°C° 0 mm 3 mps 752 mmHg 65%
10:00 +18°C° 0 mm 4 mps 752 mmHg 61%
11:00 +19°C° 0 mm 4 mps 752 mmHg 56%
12:00 +18°C° 0.5 mm 4 mps 751 mmHg 69%
13:00 +15°C° 0.5 mm 5 mps 751 mmHg 81%
14:00 +14°C° 0.5 mm 5 mps 751 mmHg 94%
15:00 +14°C° 0.6 mm 5 mps 750 mmHg 94%
16:00 +15°C° 0.6 mm 4 mps 750 mmHg 95%
17:00 +15°C° 0.6 mm 4 mps 750 mmHg 96%
18:00 +15°C° 0.1 mm 4 mps 749 mmHg 96%
19:00 +17°C° 0.1 mm 3 mps 749 mmHg 97%
20:00 +17°C° 0.1 mm 3 mps 749 mmHg 97%
21:00 +17°C° 0 mm 3 mps 749 mmHg 97%
22:00 +17°C° 0 mm 3 mps 749 mmHg 97%
23:00 +17°C° 0 mm 3 mps 749 mmHg 98%

Day after tomorrow, 11 July, Saturday

Time Temperature Precipitation Wind Pressure Humidity
00:00 +17°C° 0 mm 3 mps 749 mmHg 98%
01:00 +16°C° 0 mm 3 mps 749 mmHg 98%
02:00 +16°C° 0 mm 2 mps 750 mmHg 98%
03:00 +16°C° 0 mm 3 mps 749 mmHg 98%
04:00 +17°C° 0 mm 3 mps 749 mmHg 98%
05:00 +17°C° 0 mm 3 mps 749 mmHg 98%
06:00 +18°C° 0.1 mm 4 mps 749 mmHg 96%
07:00 +19°C° 0.1 mm 4 mps 749 mmHg 95%
08:00 +20°C° 0.1 mm 5 mps 749 mmHg 93%
09:00 +21°C° 0.2 mm 5 mps 749 mmHg 91%
10:00 +21°C° 0.2 mm 5 mps 749 mmHg 89%
11:00 +22°C° 0.2 mm 5 mps 749 mmHg 87%
12:00 +23°C° 0.2 mm 5 mps 749 mmHg 76%
13:00 +24°C° 0.2 mm 6 mps 750 mmHg 66%
14:00 +26°C° 0.2 mm 6 mps 750 mmHg 55%
15:00 +26°C° 0 mm 6 mps 751 mmHg 53%
16:00 +25°C° 0 mm 5 mps 751 mmHg 52%
17:00 +25°C° 0 mm 4 mps 752 mmHg 51%
18:00 +22°C° 0 mm 3 mps 752 mmHg 59%
19:00 +20°C° 0 mm 2 mps 752 mmHg 67%
20:00 +19°C° 0 mm 1 mps 753 mmHg 75%
21:00 +18°C° 0 mm 1 mps 753 mmHg 77%
22:00 +16°C° 0 mm 1 mps 753 mmHg 79%
23:00 +15°C° 0 mm 1 mps 754 mmHg 81%

12 July, Sunday

Time Temperature Precipitation Wind Pressure Humidity
00:00 +15°C° 0 mm 1 mps 754 mmHg 81%
01:00 +15°C° 0 mm 1 mps 754 mmHg 82%
02:00 +15°C° 0 mm 1 mps 754 mmHg 82%
03:00 +14°C° 0 mm 0 mps 754 mmHg 81%
04:00 +14°C° 0 mm 0 mps 754 mmHg 81%
05:00 +14°C° 0 mm 0 mps 754 mmHg 80%
06:00 +14°C° 0.4 mm 0 mps 754 mmHg 84%
07:00 +14°C° 0.4 mm 0 mps 755 mmHg 87%
08:00 +15°C° 0.4 mm 1 mps 755 mmHg 90%
09:00 +15°C° 0.8 mm 1 mps 755 mmHg 92%
10:00 +14°C° 0.8 mm 1 mps 755 mmHg 95%
11:00 +14°C° 0.8 mm 1 mps 755 mmHg 97%
12:00 +14°C° 0.2 mm 1 mps 755 mmHg 97%
13:00 +15°C° 0.2 mm 1 mps 755 mmHg 96%
14:00 +15°C° 0.2 mm 1 mps 755 mmHg 96%
15:00 +15°C° 0 mm 1 mps 755 mmHg 95%
16:00 +15°C° 0 mm 1 mps 755 mmHg 94%
17:00 +15°C° 0 mm 1 mps 755 mmHg 94%
18:00 +15°C° 0 mm 1 mps 755 mmHg 94%
19:00 +15°C° 0 mm 1 mps 754 mmHg 94%
20:00 +14°C° 0 mm 1 mps 754 mmHg 94%
21:00 +14°C° 0 mm 1 mps 754 mmHg 94%
22:00 +14°C° 0 mm 1 mps 754 mmHg 94%
23:00 +14°C° 0 mm 1 mps 754 mmHg 94%

13 July, Monday

Time Temperature Precipitation Wind Pressure Humidity
00:00 +14°C° 0 mm 2 mps 754 mmHg 93%
01:00 +14°C° 0 mm 2 mps 754 mmHg 93%
02:00 +13°C° 0 mm 2 mps 754 mmHg 93%
03:00 +13°C° 0 mm 2 mps 753 mmHg 92%
04:00 +12°C° 0 mm 3 mps 753 mmHg 92%
05:00 +12°C° 0 mm 3 mps 753 mmHg 91%
06:00 +13°C° 0 mm 3 mps 753 mmHg 90%
07:00 +13°C° 0 mm 3 mps 752 mmHg 89%
08:00 +14°C° 0 mm 3 mps 752 mmHg 88%
09:00 +14°C° 0.1 mm 3 mps 752 mmHg 89%
10:00 +14°C° 0.1 mm 3 mps 752 mmHg 90%
11:00 +14°C° 0.1 mm 3 mps 752 mmHg 90%
12:00 +14°C° 0 mm 3 mps 752 mmHg 89%
13:00 +14°C° 0 mm 4 mps 751 mmHg 89%
14:00 +15°C° 0 mm 4 mps 751 mmHg 88%
15:00 +15°C° 0.1 mm 4 mps 751 mmHg 88%
16:00 +15°C° 0.1 mm 4 mps 750 mmHg 89%
17:00 +15°C° 0.1 mm 4 mps 750 mmHg 89%
18:00 +15°C° 0 mm 4 mps 750 mmHg 91%
19:00 +15°C° 0 mm 4 mps 750 mmHg 92%
20:00 +14°C° 0 mm 4 mps 750 mmHg 93%
21:00 +14°C° 0 mm 4 mps 750 mmHg 94%
22:00 +14°C° 0 mm 3 mps 749 mmHg 94%
23:00 +14°C° 0 mm 3 mps 749 mmHg 95%

14 July, Tuesday

Time Temperature Precipitation Wind Pressure Humidity
00:00 +14°C° 0.2 mm 3 mps 749 mmHg 96%
01:00 +14°C° 0.2 mm 3 mps 749 mmHg 97%
02:00 +14°C° 0.2 mm 3 mps 748 mmHg 98%
03:00 +14°C° 0.5 mm 3 mps 748 mmHg 98%
04:00 +14°C° 0.5 mm 3 mps 748 mmHg 98%
05:00 +14°C° 0.5 mm 3 mps 748 mmHg 98%
06:00 +14°C° 0.7 mm 3 mps 748 mmHg 98%
07:00 +14°C° 0.7 mm 3 mps 747 mmHg 97%
08:00 +14°C° 0.7 mm 3 mps 747 mmHg 97%
09:00 +14°C° 0.2 mm 3 mps 747 mmHg 97%
10:00 +14°C° 0.2 mm 3 mps 747 mmHg 96%
11:00 +16°C° 0.2 mm 3 mps 747 mmHg 96%
12:00 +15°C° 0.2 mm 4 mps 746 mmHg 96%
13:00 +15°C° 0.2 mm 4 mps 746 mmHg 96%
14:00 +15°C° 0.2 mm 4 mps 746 mmHg 97%
15:00 +15°C° 0.2 mm 4 mps 746 mmHg 97%
16:00 +15°C° 0.2 mm 4 mps 745 mmHg 97%
17:00 +15°C° 0.2 mm 4 mps 745 mmHg 97%
18:00 +15°C° 0.3 mm 5 mps 745 mmHg 97%
19:00 +16°C° 0.3 mm 5 mps 745 mmHg 97%
20:00 +16°C° 0.3 mm 5 mps 744 mmHg 97%
21:00 +16°C° 0.8 mm 5 mps 744 mmHg 97%
22:00 +16°C° 0.8 mm 5 mps 743 mmHg 97%
23:00 +16°C° 0.8 mm 5 mps 743 mmHg 97%
Show more